sat.trackr.live / text

‹ back to catalog

RCM-2

NORAD 44324 · 2019-033C

PAYLOAD ACTIVE UNKNOWN

§ Identity

Operator
Country
CA
Launch date
2019-06-12
Launch site
AFWTR
Launch vehicle
Mass (kg)
RCS (m²)

External: N2YO · Heavens-Above · Gunter

§ Orbital elements

Epoch: 2026-05-24T01:05:15.319680Z

Period
96.48 min
Inclination
97.7596°
Eccentricity
0.0001418
Mean motion
14.92588291 rev/d
Perigee alt
588.9 km
Apogee alt
590.9 km
Semi-major
6,968.0 km
B*
-1.4023e-6
RAAN
151.8752°
Arg perigee
90.5161°
Mean anomaly
269.6221°
Rev number
37,848

§ Raw data

RCM-21 44324U 19033C   26144.04531620 -.00000070  00000+0 -14023-5 0  99942 44324  97.7596 151.8752 0001418  90.5161 269.6221 14.92588291378484

JSON: /api/v1/satellites/44324 · /tle

For live sub-satellite position, see the globe view (requires WebGL).

§ Visibility from observer

Set your observer location to see the next 7 days of passes ≥ 10°. The values pass through the URL so the page stays shareable.

No JS? Fill the form by hand. The geolocation button needs JavaScript.